リニア彗星

249P/LINEAR (2011)

English version
Home page
Updated on May 5, 2012

---------------------------------------------------------------------

・ プロフィール

符号 249P/2011 A4
検出日 2011年1月14日
検出光度 19.5等
検出者 L. Elenin (Lyubertsy, Russia)

・ 写真集

・ 軌道要素

Epoch 2011 Apr. 29.0 TT = JDT 2455680.5
T 2011 Apr. 16.08066 TT                                 MPC
q   0.5108793            (2000.0)            P               Q
n   0.21296094     Peri.   64.22887     +0.56082770     +0.81805846
a   2.7771718      Node   240.47143     -0.80238945     +0.49909009
e   0.8160433      Incl.    8.42513     -0.20406732     +0.28581364
P   4.63
From 368 observations 2006 Oct. 19-2012 Jan. 3, mean residual 0".4.

・ 星図

・ 光度変化

	H = 16.0  G = 0.15                [   ,-83]  (              〜2011年 1月23日)
        m1 = 15.5 + 5 logΔ + 16.0 log r  [-83, 66]  (2011年 1月23日〜2011年 6月21日)
	H = 16.0  G = 0.15                [ 66,   ]  (2011年 6月21日〜              )

        ※ 緑色の曲線は、H = 16.0  G = 0.15 の光度曲線です。

---------------------------------------------------------------------

軌道要素はM.P.E.C. 2012-J16に掲載されたものです。
星図はステラナビゲータ Ver.8 (アストロアーツ) で作成したものです。
光度グラフはComet for Windowsで作成したものです。

---------------------------------------------------------------------

Copyright(C) Seiichi Yoshida (comet@aerith.net). All rights reserved.